GFSFLT1_500_rhum_000.txt.gz
RH
28 30 33 37 39 38 40 53 53 51 49 47 48 50 49 49 49 48 48 48 47 44 44 44 44 42 45 47 50 54 58 59
34 35 38 41 48 59 63 60 53 56 54 53 54 59 59 62 60 58 56 56 55 53 51 50 50 48 47 49 53 57 60 62
34 35 42 53 67 75 69 60 63 64 62 60 59 54 51 52 49 50 48 42 40 38 39 40 40 38 37 43 55 64 66 66
30 36 49 50 59 74 71 76 73 60 53 55 50 50 49 44 41 38 39 39 38 38 37 37 37 39 42 49 56 59 61 60
39 48 58 61 64 60 62 60 59 64 73 59 54 48 39 41 42 43 46 47 46 46 45 45 44 44 45 46 50 54 59 59
46 51 54 56 53 57 63 68 73 73 61 54 48 42 42 39 42 41 46 46 50 56 56 53 49 46 42 38 36 36 38 37
50 56 65 66 74 76 72 63 61 60 56 46 40 41 39 41 46 44 47 52 52 50 46 46 46 46 47 45 44 43 47 49
65 69 71 67 65 65 63 58 61 58 48 39 37 58 61 50 45 42 44 46 45 42 34 25 28 36 42 46 48 46 42 39
56 57 56 59 56 52 50 46 45 39 37 40 41 41 41 48 49 50 48 46 37 13 9 8 8 7 10 19 20 11 17 32
53 52 50 45 40 39 34 29 38 51 51 42 47 55 66 78 59 61 59 43 28 16 11 8 7 4 2 4 6 19 17 32
38 37 36 33 33 38 40 40 42 47 58 68 64 92 100 82 62 48 32 29 27 23 27 12 9 16 4 7 13 10 16 66
39 38 38 42 48 48 47 49 50 46 44 45 55 84 83 51 37 32 27 10 2 5 4 3 5 4 8 18 38 91 100 100
49 52 52 48 46 46 48 53 56 57 58 63 72 93 81 84 47 23 13 0 3 17 8 7 16 40 85 100 100 100 100 100
57 55 52 49 51 54 59 68 70 75 81 73 72 70 86 92 56 14 3 3 14 35 11 49 99 100 100 100 100 100 100 100
47 53 56 56 56 60 72 78 81 70 43 54 75 84 100 96 78 19 4 11 42 32 90 100 100 100 99 90 95 99 99 99
53 55 58 63 59 52 61 70 46 58 69 89 99 100 100 88 30 6 9 34 92 100 100 100 100 100 98 98 99 100 100 100
66 63 59 57 52 50 56 46 55 100 100 100 100 76 44 23 6 11 53 100 100 100 100 100 100 100 100 100 100 100 96 84
53 48 50 43 43 51 71 83 100 100 98 48 59 60 31 5 15 58 100 100 100 100 100 100 100 100 100 98 92 81 68 46
49 44 39 44 66 81 100 100 100 97 79 53 91 87 8 21 74 99 97 99 100 100 100 98 95 93 88 84 70 47 27 18

GFSFLT1_500_rhum_006.txt.gz
RH
31 32 34 34 33 31 34 35 41 45 50 48 49 58 60 60 60 57 50 46 38 35 32 28 25 24 26 26 27 30 32 43
35 36 36 37 35 35 42 44 49 57 56 53 56 59 62 62 62 58 44 36 29 27 21 18 20 20 22 28 26 24 26 27
36 37 43 46 48 50 54 58 67 78 78 71 69 64 56 50 46 43 36 28 24 21 21 22 23 24 27 31 32 32 28 32
46 51 53 54 57 63 70 79 82 73 69 61 55 52 46 37 32 32 33 30 29 29 29 30 30 35 36 36 33 36 34 32
43 51 51 53 55 60 72 69 64 60 57 52 47 40 35 31 29 30 32 33 34 35 39 43 46 49 51 54 52 49 57 49
43 46 53 55 52 55 58 55 51 45 43 44 45 37 35 37 38 40 43 45 48 54 58 59 57 57 57 58 56 57 54 41
44 50 49 49 52 53 50 48 44 42 41 38 38 42 50 48 50 51 57 66 71 68 70 70 68 57 41 36 29 22 15 15
50 50 52 52 49 46 40 42 41 41 47 48 54 61 64 63 64 67 65 66 64 52 42 40 40 37 26 25 23 13 10 12
52 52 49 44 39 40 45 44 44 51 54 60 67 70 73 76 69 50 40 37 37 38 42 43 55 45 26 18 19 10 10 5
44 42 42 48 50 49 46 50 57 62 69 73 75 65 42 39 41 42 42 43 46 47 42 42 38 46 55 37 18 21 8 6
53 52 49 41 39 45 53 56 58 60 50 41 39 40 42 44 45 41 36 35 36 50 55 60 48 40 29 29 12 10 34 78
50 46 45 46 53 57 58 51 41 37 39 41 43 45 44 43 34 23 32 62 63 60 51 48 43 24 26 19 56 98 100 100
47 49 52 53 53 49 46 42 44 45 47 49 46 43 39 22 19 44 99 72 70 31 23 19 23 27 44 67 100 100 100 100
55 54 48 46 46 47 49 51 52 58 57 58 41 32 48 48 50 82 83 60 44 24 20 23 45 71 96 100 100 100 100 100
55 54 52 52 55 58 60 69 80 89 95 85 27 13 11 22 66 80 43 43 24 23 38 73 81 84 90 97 100 100 100 100
55 54 53 58 58 56 52 70 77 99 99 74 12 12 22 28 25 28 25 22 28 68 83 82 85 83 76 81 86 89 94 96
50 49 50 51 52 58 70 87 100 100 85 13 16 26 30 26 25 22 24 31 85 91 84 78 60 42 34 26 23 23 25 39
45 49 54 52 81 100 97 60 41 18 14 23 32 35 27 18 21 25 41 89 95 84 60 38 24 19 18 18 17 17 17 20
55 57 57 57 57 57 46 22 15 20 33 43 34 26 18 22 24 64 100 95 71 43 26 22 20 17 16 15 14 14 13 13

GFSFLT1_500_rhum_009.txt.gz
RH
32 30 30 31 34 41 47 42 49 50 49 61 64 56 51 55 54 57 54 49 42 37 31 28 27 24 24 25 26 29 28 26
27 29 36 41 46 55 54 42 54 60 64 74 75 68 60 58 56 51 44 35 28 28 29 29 29 29 28 30 30 28 29 36
30 33 42 42 53 52 68 57 62 69 72 85 81 66 60 57 46 37 34 32 32 35 36 36 36 36 37 40 41 40 40 44
32 41 46 54 66 69 69 68 73 79 85 70 67 65 58 47 37 36 37 42 46 46 47 48 46 44 40 40 44 43 39 38
45 53 55 63 69 77 82 81 70 66 78 68 64 53 41 38 38 40 48 53 59 58 55 51 49 44 39 38 34 34 35 32
47 43 48 57 70 72 63 61 65 66 53 47 43 40 44 75 72 59 91 91 72 70 55 41 39 38 37 36 36 35 34 31
38 44 46 50 56 60 66 63 49 44 44 49 49 53 59 78 72 74 76 72 58 44 41 42 42 40 36 33 30 26 20 13
50 56 56 58 59 55 52 50 52 50 52 58 59 62 67 72 69 54 46 42 42 43 44 42 35 27 23 21 18 14 14 12
58 57 58 53 54 56 58 54 52 49 50 56 57 57 56 47 42 44 48 45 46 45 37 29 21 16 20 29 37 15 12 13
57 58 56 59 56 50 50 54 55 50 47 48 48 51 52 53 59 59 49 60 61 32 25 18 14 21 46 55 50 48 15 12
63 61 59 55 53 55 53 52 53 53 51 52 54 55 61 61 65 63 60 84 73 16 19 20 24 36 50 37 21 19 17 19
64 62 61 60 59 56 54 51 49 46 48 49 49 46 49 52 58 74 97 94 20 20 16 18 21 24 23 26 31 62 84 89
64 64 63 56 50 50 43 39 41 43 47 49 54 54 58 77 100 90 51 19 17 15 18 18 21 27 34 77 89 81 89 94
62 59 57 52 46 37 33 33 40 47 50 53 71 100 100 79 22 19 20 18 20 15 16 22 28 50 92 97 90 89 87 88
53 48 41 35 31 32 39 42 46 53 56 54 53 46 30 23 19 18 21 19 14 17 22 44 81 96 98 84 57 43 36 37
35 33 32 38 43 47 47 51 53 54 48 41 30 22 20 23 27 27 22 15 19 24 52 85 89 74 55 33 24 22 21 20
36 37 40 40 40 47 55 58 54 47 35 24 19 22 32 34 31 25 16 21 23 78 86 78 53 30 23 23 20 18 16 16
36 33 31 46 61 63 59 52 40 29 19 17 24 36 39 36 27 20 23 26 77 91 70 40 30 25 21 17 18 20 19 20
42 44 61 69 63 59 46 34 24 20 23 28 34 44 37 28 24 24 25 60 89 68 38 31 28 20 20 32 38 38 41 50

GFSFLT1_500_rhum_012.txt.gz
RH
35 19 34 36 29 38 34 27 64 86 74 75 66 55 58 62 78 56 56 44 38 31 28 27 27 28 31 31 28 25 23 22
25 29 41 37 44 46 50 66 86 82 60 68 72 75 89 87 72 46 49 33 36 31 30 32 34 35 32 27 23 20 20 21
24 31 37 39 55 58 56 70 77 86 79 68 79 97 75 65 56 45 36 38 53 58 51 40 42 39 40 34 28 28 28 32
26 31 46 55 55 68 82 87 98 96 81 68 76 68 66 55 49 62 47 49 58 96 82 59 45 43 40 33 33 35 34 35
24 34 43 52 74 84 84 70 66 99 82 70 68 56 52 54 58 60 56 55 56 58 57 48 38 38 40 41 41 40 37 33
35 36 40 55 59 60 59 68 70 66 61 55 54 58 53 53 52 49 47 43 40 45 47 46 46 48 48 46 41 41 40 36
39 44 48 56 64 67 70 66 56 51 54 57 52 51 47 44 41 41 44 47 51 55 56 58 58 52 55 53 54 66 38 30
48 47 50 50 55 57 61 66 63 58 48 47 51 46 45 43 38 42 43 46 50 48 48 51 58 61 74 78 80 73 24 8
47 55 58 60 64 66 62 61 60 58 59 49 39 32 36 39 44 47 50 52 57 56 56 52 47 58 71 63 40 13 10 11
58 61 62 66 68 65 60 54 52 50 47 42 40 37 34 38 41 44 44 49 59 88 100 100 72 18 14 11 9 9 11 14
66 69 70 65 59 52 43 40 33 28 28 30 26 30 36 44 45 42 44 44 52 59 44 19 14 11 10 9 10 14 19 25
81 72 59 48 40 40 33 27 29 32 25 28 36 43 45 45 43 39 34 25 19 16 14 16 15 13 12 15 19 32 42 67
63 56 45 34 31 32 33 35 26 28 33 37 49 50 46 41 33 24 17 14 19 23 22 17 13 16 20 39 71 91 99 88
37 38 40 41 39 32 32 32 36 36 43 53 53 46 38 25 17 11 20 25 27 23 20 16 20 25 72 84 81 62 45 36
41 40 39 35 35 37 39 39 41 52 57 47 44 33 12 8 14 18 24 25 25 19 19 22 28 70 78 68 43 29 25 23
47 39 34 35 37 39 41 47 52 55 49 40 22 7 7 9 18 17 20 20 20 21 22 27 74 82 65 38 29 28 22 19
40 38 37 39 42 43 44 54 52 48 34 12 11 17 24 17 21 20 22 25 23 22 32 100 87 54 38 31 31 23 28 45
39 39 38 35 39 45 49 50 46 25 8 8 14 28 95 27 100 53 44 21 28 52 100 82 54 40 35 33 25 28 48 60
43 42 37 35 41 46 43 41 21 9 10 10 15 25 42 43 100 100 32 33 89 100 65 50 43 41 39 29 26 52 64 76

GFSFLT1_500_rhum_015.txt.gz
RH
18 16 17 24 31 44 22 26 56 57 50 44 53 66 64 55 50 54 54 49 43 38 35 42 42 37 36 33 31 30 27 24
21 24 26 48 76 43 26 44 37 52 47 56 82 73 74 58 57 53 41 41 47 47 44 41 39 41 41 38 33 31 31 31
31 35 44 66 78 80 63 55 78 56 63 66 76 87 79 67 58 50 51 47 44 46 46 42 40 37 35 34 33 31 31 34
37 39 47 46 35 45 74 83 71 57 65 73 82 79 62 58 58 51 52 56 54 47 40 33 29 26 19 18 25 30 31 38
47 44 42 40 44 50 50 55 66 75 74 67 62 56 59 55 58 59 54 49 43 39 36 31 26 23 25 29 31 33 33 36
34 38 39 45 50 51 61 68 68 65 61 61 60 60 63 63 56 49 37 30 28 29 27 25 26 30 36 37 37 46 56 57
42 44 44 43 49 61 64 65 64 60 62 66 64 55 48 42 39 33 27 26 32 36 35 38 42 42 43 43 47 51 53 61
51 47 42 45 57 61 69 73 72 70 64 47 32 27 23 22 25 26 26 35 44 44 45 44 44 44 42 39 32 25 16 15
67 61 58 62 64 68 64 60 59 54 45 40 35 29 26 27 30 33 40 46 46 46 45 41 34 24 16 12 9 8 8 8
61 65 66 68 65 59 54 43 32 27 25 26 30 27 24 25 32 44 45 45 41 32 20 12 10 11 11 12 12 11 10 10
91 85 80 66 58 48 42 36 31 29 28 27 26 33 33 37 42 44 41 28 13 8 9 11 15 17 21 19 16 16 17 20
85 76 58 46 43 36 31 30 29 29 30 35 38 36 36 38 40 29 15 8 10 11 21 16 17 18 18 20 20 22 46 82
58 51 47 44 45 40 34 33 33 34 31 37 36 33 32 34 20 10 11 14 12 33 44 23 23 18 20 22 25 62 91 77
51 48 48 46 39 38 37 37 35 33 33 32 34 36 33 16 10 10 10 11 28 80 62 68 61 18 25 37 89 84 66 45
51 52 46 37 34 34 36 36 36 34 32 35 36 30 14 10 11 14 14 78 88 100 50 99 52 44 72 95 74 54 41 36
55 47 40 39 38 36 38 40 36 36 37 34 28 15 11 10 9 12 80 100 100 94 89 100 70 85 77 58 46 43 40 37
50 46 44 40 38 39 38 36 36 36 36 27 13 11 9 8 10 16 69 80 100 80 100 88 87 61 49 46 43 42 37 24
47 46 42 41 40 37 37 37 38 36 28 12 11 9 8 10 14 47 82 100 81 100 84 80 53 50 46 44 38 31 29 53
49 43 41 39 41 44 42 41 39 27 14 11 8 7 9 12 14 96 100 79 90 100 67 53 56 49 43 40 30 53 77 86

GFSFLT1_500_rhum_021.txt.gz
RH
20 32 45 40 26 60 97 98 98 99 90 47 39 39 47 84 91 74 72 61 64 64 46 28 16 13 13 13 14 14 14 12
67 54 43 35 58 88 99 99 79 47 48 39 55 75 92 82 72 71 64 71 63 36 21 18 16 18 17 16 17 18 18 16
98 91 83 88 100 90 62 50 43 41 46 47 73 67 62 62 67 72 77 62 36 26 27 25 22 20 22 22 22 21 20 19
70 95 91 86 79 66 74 68 50 42 45 44 47 56 67 74 81 78 54 33 31 34 33 33 31 31 28 26 24 24 21 20
91 92 83 90 86 85 81 70 68 58 62 64 69 81 87 86 76 57 51 56 56 47 46 40 32 28 26 26 26 25 23 20
78 84 63 97 96 81 70 80 71 67 71 76 88 94 94 77 65 58 47 44 42 37 37 30 28 29 33 33 29 25 21 17
76 56 85 87 90 88 85 88 80 83 88 90 90 69 51 45 43 39 35 34 32 30 29 32 35 36 34 29 22 16 13 10
61 100 97 100 93 83 84 78 90 92 74 57 46 39 35 32 31 30 32 31 30 28 30 35 38 35 28 20 14 10 9 8
99 99 97 86 76 67 65 58 41 39 33 30 32 33 31 31 34 34 34 30 33 36 41 40 37 30 21 16 12 9 13 61
65 68 59 68 61 56 41 37 41 44 42 39 37 38 39 38 36 29 27 34 32 37 39 36 28 20 14 10 11 26 34 41
47 51 60 55 39 48 56 54 53 52 48 46 41 38 36 32 27 26 28 28 35 38 33 26 17 12 8 15 26 48 72 100
38 39 40 44 51 60 60 60 60 52 47 45 42 34 30 24 19 23 26 33 38 37 24 16 10 9 14 25 37 57 100 100
29 36 46 54 69 72 65 59 55 54 53 46 38 33 25 20 27 30 34 43 41 26 18 10 10 16 18 27 61 100 97 72
38 45 53 64 64 63 64 62 58 55 48 42 36 28 24 27 29 45 48 44 29 19 11 9 13 17 48 88 98 68 54 49
40 46 53 60 64 67 66 63 58 49 43 36 30 26 25 36 47 48 47 32 20 12 8 12 15 42 98 92 58 53 49 43
51 60 68 74 79 76 72 59 49 44 39 33 30 30 40 55 55 51 27 19 14 9 12 19 27 47 54 54 55 46 40 36
45 54 76 88 84 76 63 56 50 41 37 35 38 43 58 62 56 35 21 16 10 14 27 39 52 48 56 60 52 42 37 29
48 65 79 82 78 71 67 58 47 43 42 45 47 54 61 61 42 22 15 10 13 28 45 55 56 58 64 58 44 39 34 22
59 71 78 80 76 73 62 55 54 50 51 51 56 63 64 48 26 17 11 12 21 48 54 65 62 66 64 53 43 35 30 27

GFSFLT1_500_rhum_024.txt.gz
RH
24 20 35 49 58 37 59 69 66 96 97 80 72 65 59 53 57 72 66 63 58 65 67 50 26 20 20 20 19 20 18 17
42 47 47 48 51 61 95 74 98 77 68 81 72 61 66 66 66 65 61 68 69 64 40 24 23 25 23 21 21 22 23 22
72 41 48 76 93 96 68 53 42 37 41 59 71 71 63 64 65 69 72 68 48 28 25 23 23 25 27 31 32 34 33 26
67 83 93 93 87 70 60 41 44 64 79 64 60 65 67 68 72 70 52 33 32 33 36 43 48 47 40 33 28 18 16 18
50 67 79 96 78 55 51 73 99 91 71 62 63 66 68 64 51 42 43 48 53 58 55 38 32 25 20 16 14 16 18 18
66 98 100 86 59 60 99 99 100 86 74 76 76 84 79 66 67 64 56 50 38 32 30 25 19 15 15 16 18 23 27 34
96 99 76 54 57 100 90 97 86 89 100 96 86 73 63 58 47 38 33 33 31 28 21 15 16 18 20 23 27 33 38 32
47 54 65 99 99 98 84 65 79 96 82 66 48 46 44 41 38 38 39 33 29 23 17 19 24 26 32 38 41 37 37 33
44 96 90 52 50 46 49 63 79 55 43 41 44 46 44 43 46 44 36 31 26 20 23 27 32 40 43 44 36 38 28 9
34 34 34 35 40 44 51 58 43 44 53 56 53 51 52 51 44 36 32 29 24 23 28 36 38 40 45 43 39 16 7 12
20 22 28 33 37 42 46 50 53 56 56 59 62 59 51 43 38 37 32 28 31 34 32 36 40 45 44 39 11 8 12 18
21 22 24 24 27 32 39 48 58 61 66 67 62 54 47 46 41 35 32 34 34 41 43 47 48 48 29 9 10 15 24 60
26 26 25 25 28 37 43 55 66 71 74 71 60 55 52 46 39 36 39 41 47 49 53 49 48 23 9 13 20 22 42 60
27 29 30 32 35 42 52 60 70 76 74 67 61 56 51 48 46 48 44 48 51 54 50 46 22 10 14 28 35 48 52 55
29 31 34 37 41 44 43 51 66 74 72 70 65 59 57 55 53 47 52 52 54 49 39 21 11 13 30 42 47 50 57 55
32 33 36 39 43 42 43 61 79 84 81 72 66 61 60 51 45 52 58 60 50 36 22 12 11 25 41 49 54 60 60 54
34 34 37 42 48 46 60 85 92 85 77 71 67 67 48 48 51 59 64 54 38 23 13 11 19 43 54 62 67 67 67 49
35 36 41 50 55 60 80 91 90 84 76 76 61 54 56 60 64 67 54 37 23 13 12 16 41 55 58 69 72 74 60 43
38 40 46 60 63 72 87 89 88 87 82 66 62 62 65 70 70 52 34 24 14 14 14 33 58 57 64 71 73 69 55 40

GFSFLT1_500_rhum_027.txt.gz
RH
29 40 37 48 65 65 62 77 89 97 98 94 78 68 56 55 72 86 74 67 69 75 69 67 47 29 27 25 24 24 23 22
20 40 49 43 48 69 71 72 98 84 65 34 52 93 78 68 65 61 65 70 71 70 59 32 27 26 27 27 27 27 24 19
20 20 28 41 73 86 80 73 63 41 44 78 80 82 74 61 52 65 63 56 43 34 32 37 41 43 42 38 30 18 16 16
16 22 41 62 54 56 75 72 56 47 78 66 46 52 66 51 63 71 63 52 53 53 54 54 49 41 32 27 20 15 16 16
24 44 72 70 86 93 76 56 39 39 66 72 73 66 70 84 86 74 56 55 58 56 47 44 38 32 29 21 15 17 16 18
48 47 55 80 90 56 41 70 62 72 100 85 44 72 87 81 68 60 57 54 49 45 45 38 34 31 24 20 22 25 27 28
46 37 35 32 40 48 94 100 96 85 52 39 60 73 59 54 54 54 53 49 48 45 39 37 33 28 25 25 26 30 33 35
38 34 30 34 46 61 58 33 28 30 34 44 57 52 49 53 52 51 54 56 46 42 41 37 32 28 28 31 32 35 38 40
22 22 20 20 22 24 24 25 26 30 38 45 45 45 50 56 62 64 57 46 47 46 42 40 35 34 31 34 40 41 39 35
18 19 19 20 20 20 21 23 26 30 32 35 40 50 58 65 67 59 55 56 54 49 45 39 35 35 38 42 47 43 34 10
22 23 24 25 25 25 24 24 26 28 31 38 43 54 70 74 68 67 64 57 51 48 43 37 38 40 47 50 42 25 9 10
26 28 28 28 28 29 29 30 30 33 39 42 54 67 78 77 73 64 54 50 45 41 43 42 44 49 50 35 16 10 12 29
35 37 36 33 31 29 30 32 36 41 46 51 60 73 77 74 65 60 57 47 48 50 46 52 53 49 29 14 12 12 31 45
32 36 40 38 34 32 34 36 40 49 52 54 64 71 72 66 64 65 58 58 54 53 55 52 46 25 12 12 12 28 45 54
24 36 42 41 37 35 37 41 50 58 54 59 69 69 69 72 74 69 66 57 57 56 50 41 22 11 12 13 26 46 52 61
24 32 44 46 41 39 40 47 57 59 58 76 76 78 82 82 77 70 55 58 56 48 35 19 10 12 13 19 49 56 60 74
24 27 44 52 50 43 46 54 65 59 79 82 87 90 90 86 70 58 60 56 46 33 16 10 12 14 15 42 61 65 75 68
25 26 50 60 54 49 52 60 57 83 96 98 98 97 86 71 66 66 60 46 31 14 10 11 15 15 34 60 69 74 78 77
29 31 57 62 56 55 56 55 71 100 100 100 95 80 76 77 72 64 47 32 13 10 12 16 17 25 54 75 88 88 84 74

GFSFLT1_500_rhum_030.txt.gz
RH
28 28 37 42 46 53 58 63 76 90 85 96 91 60 63 74 69 81 69 64 71 76 78 75 61 47 34 30 30 30 32 32
24 22 23 44 49 40 65 74 80 94 96 69 47 40 77 92 80 61 44 44 52 56 47 41 40 39 44 45 46 45 40 34
22 20 23 23 32 53 60 56 58 79 70 50 45 62 92 99 74 52 52 70 73 73 72 68 68 64 57 53 51 42 38 34
18 22 26 47 50 58 59 83 95 76 57 71 69 66 81 66 51 60 72 71 66 63 63 63 59 57 55 48 42 40 35 28
25 32 40 50 45 65 94 86 59 41 45 47 50 48 39 37 46 57 60 62 64 64 60 57 58 55 47 45 44 40 37 31
41 51 54 53 36 30 31 27 27 24 36 43 28 23 25 33 42 50 55 53 56 58 63 65 58 52 51 46 38 31 30 32
44 36 28 22 20 18 18 18 20 21 19 19 20 23 28 35 43 49 50 56 63 67 70 63 59 53 45 35 32 35 33 34
23 19 16 16 18 18 19 20 20 20 20 20 22 25 33 35 34 33 38 51 69 74 68 60 53 42 33 36 42 43 35 34
17 18 19 20 22 23 24 25 24 24 24 24 27 30 30 31 32 38 48 61 68 65 58 51 44 44 50 52 41 35 36 36
19 21 23 24 26 28 28 28 28 27 28 29 29 31 33 38 40 41 52 64 63 58 55 52 55 61 55 38 37 42 38 30
23 26 29 31 32 34 35 34 31 30 30 32 34 37 43 45 45 50 64 67 64 59 57 65 68 54 40 42 44 36 25 10
22 25 27 32 33 36 38 39 36 35 33 35 37 41 48 56 54 66 71 68 65 70 74 72 55 45 45 45 37 20 8 10
18 19 20 24 25 30 38 43 45 46 41 39 41 47 59 59 62 72 68 72 78 77 63 55 48 44 48 34 15 7 10 13
20 21 21 21 22 22 29 43 50 56 48 44 46 53 60 56 78 78 85 85 73 61 58 52 46 50 32 12 8 10 13 17
21 22 22 24 23 24 25 37 56 58 53 50 51 56 55 75 89 94 87 75 70 65 56 50 52 34 12 8 10 14 15 42
22 23 24 25 26 27 27 37 59 62 57 54 56 53 76 95 97 89 82 82 79 64 51 52 38 12 9 10 14 17 36 58
25 25 26 27 29 32 33 42 59 60 57 56 54 92 98 100 96 92 88 85 91 67 52 46 13 10 12 14 18 23 57 72
30 30 30 29 34 38 40 49 60 58 60 73 97 96 100 99 92 97 95 98 74 53 50 16 11 13 14 19 25 46 76 77
34 34 34 37 42 41 51 60 61 71 89 94 100 99 100 98 100 100 99 96 61 52 28 13 14 14 19 25 37 51 55 61

GFSFLT1_500_rhum_033.txt.gz
RH
29 27 28 32 40 50 58 54 47 64 76 71 96 82 67 54 54 69 92 78 58 44 39 39 41 38 42 45 50 54 54 52
30 28 26 26 29 41 37 29 42 66 71 65 58 71 60 52 52 56 51 38 30 32 38 46 64 66 70 69 64 61 61 56
32 29 25 22 23 28 26 29 23 31 38 56 69 54 38 42 30 25 24 24 35 46 61 66 71 73 66 65 70 67 61 56
35 31 31 30 34 30 40 50 41 62 76 45 31 26 26 24 23 22 24 29 33 41 50 57 58 62 66 65 64 62 56 44
32 33 30 28 29 33 31 29 25 26 24 20 17 18 20 21 20 21 21 27 30 35 35 37 43 53 61 64 66 55 45 43
25 20 24 34 37 26 21 17 17 16 18 19 19 20 20 21 21 21 24 25 32 33 33 33 43 56 68 67 60 57 52 47
18 21 29 22 18 17 18 18 20 22 23 23 23 23 24 24 25 28 29 30 32 34 34 40 54 62 64 58 56 56 54 51
18 21 16 17 18 20 22 25 26 28 28 28 28 28 28 30 33 32 34 36 42 45 45 57 67 66 66 64 60 57 51 47
15 16 18 20 21 24 26 27 28 30 33 34 32 32 32 32 34 36 38 43 50 50 52 68 69 71 70 65 58 52 44 34
16 17 22 24 24 25 24 23 24 30 36 38 39 38 39 42 43 42 43 47 51 48 57 74 77 74 70 62 54 52 49 35
16 17 19 20 20 21 19 19 21 24 32 40 43 46 51 55 50 47 47 51 52 53 82 84 82 79 66 66 68 52 36 24
16 16 17 18 18 19 19 20 22 25 26 28 35 47 55 58 57 52 51 51 56 85 89 89 84 74 72 75 60 34 24 20
20 20 21 21 21 21 22 23 24 25 25 26 28 45 61 60 57 53 52 62 88 90 93 82 75 76 81 63 34 26 21 11
20 20 21 22 22 23 24 25 26 28 30 32 34 38 49 57 57 54 74 92 85 86 85 78 90 85 51 29 24 24 13 10
17 18 24 29 29 28 27 27 30 32 36 40 42 48 59 60 62 88 94 86 87 90 86 98 86 47 31 26 22 15 10 12
26 30 31 32 32 31 32 32 34 38 42 43 48 61 65 73 93 94 87 94 97 88 98 97 76 57 31 22 13 11 12 15
30 33 33 32 34 37 35 36 41 45 44 52 66 74 87 91 83 82 100 95 89 94 100 97 74 36 22 14 12 13 15 21
32 36 42 43 42 40 41 46 46 47 60 67 74 92 92 90 100 100 100 100 100 100 100 90 63 33 16 12 12 15 23 30
45 50 50 47 48 51 47 46 55 64 69 73 97 96 100 100 100 100 100 100 100 100 91 78 44 24 12 12 14 22 31 36

GFSFLT1_500_rhum_036.txt.gz
RH
24 24 24 22 24 27 33 41 54 39 45 45 54 52 44 61 55 28 22 18 18 20 22 22 24 25 28 28 34 45 49 46
33 31 31 28 28 27 26 30 26 24 25 30 38 60 54 27 21 21 19 19 21 21 21 23 31 34 30 32 33 36 45 51
27 29 29 23 17 15 14 20 33 39 34 28 35 30 18 17 18 18 19 20 21 22 25 25 28 34 35 32 30 38 48 53
22 20 17 15 13 17 22 30 36 31 27 18 17 18 19 19 20 22 24 26 27 28 30 35 36 34 36 36 33 44 49 50
18 18 18 22 16 19 53 37 23 20 20 19 21 22 23 24 25 26 28 30 32 34 34 35 37 39 41 37 38 57 62 61
18 21 24 23 26 53 28 18 34 39 22 23 25 26 26 25 26 29 30 34 37 38 38 41 40 38 38 37 53 67 72 70
21 19 20 16 23 18 24 54 23 24 26 28 30 30 27 29 34 37 38 41 50 56 51 45 42 39 39 55 73 78 76 66
18 16 16 16 16 18 19 20 24 27 29 29 27 26 28 35 38 41 44 48 57 59 54 49 45 44 54 80 87 78 65 55
16 15 15 17 19 22 24 25 23 22 21 20 24 27 28 31 32 37 42 44 55 56 56 52 51 55 78 81 80 76 63 61
17 17 16 16 18 19 19 19 18 19 20 20 22 24 25 26 28 28 31 54 64 59 57 54 58 84 81 79 86 75 75 80
14 15 16 17 17 18 19 20 20 21 22 22 24 25 27 29 31 32 37 54 59 62 60 65 84 79 78 85 83 77 84 81
17 18 19 19 20 20 21 22 21 24 24 26 28 28 29 30 35 39 47 98 74 65 71 84 76 82 83 86 82 85 95 79
19 19 19 18 16 17 23 28 30 30 31 32 32 33 34 52 42 43 77 68 70 81 86 80 80 92 95 100 100 100 86 47
19 16 15 15 21 24 27 33 36 35 35 38 39 43 46 78 51 88 84 73 90 89 83 81 86 98 100 100 93 87 63 27
19 20 19 22 25 28 30 32 40 41 42 44 49 52 56 53 61 72 78 95 92 92 83 87 100 100 100 100 99 96 44 23
28 34 37 44 31 38 44 44 46 46 47 50 52 49 58 70 61 75 96 96 85 84 100 100 100 99 100 100 93 62 33 18
31 41 48 47 45 40 46 45 48 52 52 51 52 68 70 56 89 81 100 96 92 100 100 96 98 100 100 94 56 31 16 11
34 30 38 42 38 35 42 45 46 44 51 69 70 56 65 83 89 100 86 100 100 100 100 100 100 100 99 62 30 16 13 14
24 25 25 30 40 39 40 40 48 64 67 59 58 84 100 96 91 91 100 100 100 100 100 100 100 95 88 44 18 14 14 17

GFSFLT1_500_rhum_042.txt.gz
RH
22 25 21 21 39 36 37 33 21 25 27 55 54 61 37 23 17 18 20 21 23 24 27 29 29 30 33 36 43 48 52 51
19 23 28 24 27 21 19 22 23 30 60 55 44 34 23 19 20 22 23 25 25 29 29 30 31 33 34 37 44 54 56 54
15 20 24 25 25 20 19 21 41 54 83 41 20 25 21 23 23 25 25 24 24 28 28 28 28 27 27 28 30 36 43 52
16 16 19 21 22 23 20 48 71 76 42 26 36 24 23 23 26 24 21 20 23 23 25 26 26 27 26 27 29 29 37 45
25 31 29 16 20 20 22 70 64 52 32 46 28 23 24 24 24 22 20 21 22 23 24 26 27 29 31 34 38 50 87 76
23 26 20 14 14 31 45 43 43 36 29 23 24 25 24 22 21 21 21 22 24 26 27 29 30 31 34 40 43 54 99 100
37 26 26 26 31 26 45 32 28 27 33 22 24 19 20 21 21 22 24 26 28 29 31 33 33 38 56 54 42 45 56 72
14 26 17 24 18 37 32 17 19 17 20 19 22 20 20 19 20 26 30 29 31 36 61 76 48 47 91 100 79 61 92 99
16 16 23 30 29 43 27 25 18 19 20 35 20 16 32 28 23 24 22 35 65 76 84 88 57 75 73 100 80 65 71 75
16 18 28 33 20 26 19 22 20 22 33 47 27 41 45 20 30 56 75 74 71 99 61 60 58 62 98 100 95 71 79 86
17 19 19 21 21 20 20 19 18 33 31 37 47 78 79 73 79 87 94 78 76 59 72 63 58 60 97 96 74 78 92 96
20 22 22 22 21 20 18 18 18 29 38 79 96 92 99 90 83 90 85 64 64 61 58 59 70 81 77 78 88 86 90 92
23 22 23 22 20 19 18 21 33 60 90 76 96 100 100 99 70 82 75 74 50 57 76 82 72 76 99 100 95 96 100 100
23 22 18 14 15 28 52 53 53 64 78 90 93 96 88 50 37 45 49 57 73 77 63 58 83 84 84 83 94 82 82 100
14 10 12 11 18 36 45 83 99 97 91 98 98 93 56 48 55 66 67 65 64 67 77 90 94 93 100 100 100 100 97 99
14 22 14 33 78 55 50 55 77 86 84 96 100 100 83 72 79 63 71 84 83 84 88 93 98 98 99 100 100 99 99 100
18 18 21 19 30 66 77 95 97 86 78 91 100 78 80 76 56 86 82 82 93 99 99 94 99 100 100 100 100 100 100 100
33 31 21 13 12 16 72 49 80 97 99 74 66 60 60 77 91 91 99 96 86 85 95 100 100 100 100 100 100 100 100 96
17 12 10 11 14 19 38 52 65 69 60 60 75 87 99 100 99 92 100 100 100 100 100 100 100 100 100 100 100 90 58 27

GFSFLT1_500_rhum_045.txt.gz
RH
22 24 26 43 48 46 42 22 15 18 26 43 59 74 64 29 18 17 19 21 21 21 21 20 19 19 21 22 24 24 24 26
26 24 24 24 20 16 17 22 26 37 42 67 64 40 32 19 19 20 23 23 21 18 19 20 21 22 22 22 24 26 26 28
24 23 21 21 17 22 20 20 36 73 67 77 33 19 23 22 22 21 21 18 18 19 21 22 22 22 23 26 28 30 31 34
28 27 29 27 20 17 18 30 70 60 77 40 35 48 29 29 30 21 19 20 20 22 21 22 24 25 26 28 31 35 40 59
41 44 45 42 34 26 24 47 60 57 56 39 46 44 70 86 29 19 20 21 22 22 23 27 26 28 49 63 71 67 53 78
34 29 30 34 52 62 47 62 72 60 38 36 56 64 54 22 20 20 20 21 22 22 25 28 41 58 72 74 100 92 57 84
49 66 62 50 41 57 56 62 72 53 35 33 35 51 25 48 32 18 22 42 26 27 39 57 65 77 96 100 72 59 60 82
65 56 47 45 58 54 52 54 54 40 18 18 24 45 33 52 39 28 49 39 44 56 73 89 78 76 85 89 66 63 72 72
34 41 17 36 46 66 58 70 68 51 36 24 28 43 53 60 38 56 75 88 78 77 85 84 100 68 88 68 58 61 96 82
16 15 27 22 28 53 59 56 41 35 35 34 33 39 52 63 81 87 94 87 84 98 84 92 77 79 96 57 71 76 72 64
16 16 17 18 20 33 25 28 31 30 33 35 28 53 62 85 84 99 92 92 99 74 57 75 97 82 59 67 68 71 75 84
17 19 21 22 23 23 23 22 23 27 33 42 62 75 89 98 94 91 90 93 95 91 92 58 58 58 71 81 90 96 100 100
19 21 24 26 26 25 22 24 30 41 47 50 70 80 84 96 99 96 100 100 100 81 65 70 70 92 100 100 98 100 100 97
29 27 31 28 23 24 40 58 68 60 63 79 98 95 99 100 99 98 100 99 98 98 79 86 100 100 92 86 85 85 86 88
23 24 22 26 28 45 42 42 51 71 77 86 79 88 85 86 90 100 96 95 92 80 94 96 93 87 98 99 100 100 100 100
20 19 20 24 36 40 47 76 83 44 27 97 81 77 82 90 95 100 83 84 91 93 92 84 90 93 99 95 86 84 89 56
24 20 21 19 29 9 25 30 11 11 39 45 80 91 78 79 64 74 87 90 90 89 78 98 100 100 100 96 45 59 18 58
26 27 22 13 8 7 6 6 9 20 40 46 49 43 55 65 79 83 89 81 92 97 96 88 11 10 11 20 15 13 22 21
27 18 10 8 7 7 9 12 24 38 41 37 40 56 65 78 89 92 95 100 98 100 100 14 4 8 7 9 16 19 18 20